N2795J KTMB-KOPF

Flight info

Callsign N2795J
Flight time N/A
Altitude 3000
Route DCT
Aircraft C172/L-VGDW/C

Departure

Time 2026-04-24 16:38
Airport Miami Executive Airport (KTMB)

Arrival

Time N/A
Airport Miami-Opa Locka Executive Airport (KOPF)
Time Latitude Longitude Altitude Speed Heading
2026-04-24 16:31 25.64567 -80.42820 9 ft 0 kts 78°
2026-04-24 16:33 25.64542 -80.42790 9 ft 10 kts 203°
2026-04-24 16:33 25.64488 -80.42852 9 ft 8 kts 183°
2026-04-24 16:34 25.64450 -80.42900 9 ft 7 kts 265°
2026-04-24 16:34 25.64451 -80.42981 9 ft 9 kts 287°
2026-04-24 16:34 25.64498 -80.43057 9 ft 15 kts 307°
2026-04-24 16:34 25.64570 -80.43164 9 ft 19 kts 307°
2026-04-24 16:35 25.64644 -80.43278 9 ft 17 kts 272°
2026-04-24 16:35 25.64594 -80.43340 9 ft 9 kts 231°
2026-04-24 16:35 25.64580 -80.43394 9 ft 11 kts 148°
2026-04-24 16:35 25.64525 -80.43301 9 ft 17 kts 124°
2026-04-24 16:36 25.64441 -80.43246 9 ft 14 kts 237°
2026-04-24 16:36 25.64431 -80.43378 9 ft 20 kts 266°
2026-04-24 16:36 25.64423 -80.43556 9 ft 24 kts 267°
2026-04-24 16:36 25.64418 -80.43733 9 ft 17 kts 269°
2026-04-24 16:37 25.64325 -80.43770 9 ft 15 kts 160°
2026-04-24 16:37 25.64314 -80.43562 9 ft 49 kts 86°
2026-04-24 16:37 25.64322 -80.43301 51 ft 61 kts 92°
2026-04-24 16:37 25.64344 -80.42668 214 ft 66 kts 91°
2026-04-24 16:38 25.64353 -80.42191 379 ft 63 kts 91°
2026-04-24 16:38 25.64372 -80.41699 501 ft 67 kts 88°
2026-04-24 16:38 25.64518 -80.41241 684 ft 68 kts 48°
2026-04-24 16:39 25.65545 -80.41190 971 ft 78 kts 356°
2026-04-24 16:39 25.66087 -80.41335 1087 ft 82 kts 351°
2026-04-24 16:39 25.66621 -80.41532 1229 ft 81 kts 345°
2026-04-24 16:39 25.67160 -80.41715 1366 ft 80 kts 350°
2026-04-24 16:40 25.67706 -80.41894 1501 ft 81 kts 345°
2026-04-24 16:40 25.68235 -80.42116 1633 ft 81 kts 347°
2026-04-24 16:40 25.68775 -80.42295 1750 ft 82 kts 353°
2026-04-24 16:40 25.69327 -80.42431 1912 ft 77 kts 356°
2026-04-24 16:41 25.69836 -80.42544 2035 ft 79 kts 354°
2026-04-24 16:41 25.70410 -80.42670 2054 ft 87 kts 356°
2026-04-24 16:41 25.71035 -80.42770 2089 ft 90 kts
2026-04-24 16:41 25.71648 -80.42838 2156 ft 90 kts
2026-04-24 16:42 25.72297 -80.42940 2156 ft 97 kts 357°
2026-04-24 16:42 25.73005 -80.43060 2086 ft 108 kts 354°
2026-04-24 16:42 25.73749 -80.43296 2075 ft 109 kts 346°
2026-04-24 16:42 25.74464 -80.43546 2062 ft 108 kts 348°
2026-04-24 16:43 25.75180 -80.43799 2046 ft 108 kts 348°
2026-04-24 16:43 25.75904 -80.44025 2054 ft 105 kts 351°
2026-04-24 16:43 25.76614 -80.44256 2058 ft 104 kts 349°
2026-04-24 16:43 25.77299 -80.44482 2088 ft 101 kts 350°
2026-04-24 16:44 25.77950 -80.44676 2160 ft 94 kts 349°
2026-04-24 16:44 25.78578 -80.44904 2200 ft 92 kts 345°
2026-04-24 16:44 25.79253 -80.45113 2077 ft 107 kts 352°
2026-04-24 16:44 25.79961 -80.45350 2056 ft 108 kts 350°
2026-04-24 16:45 25.80721 -80.45545 1998 ft 110 kts 354°
2026-04-24 16:45 25.81422 -80.45704 2087 ft 99 kts 356°
2026-04-24 16:45 25.82101 -80.45890 2075 ft 102 kts 350°
2026-04-24 16:45 25.82798 -80.46073 2050 ft 104 kts 355°
2026-04-24 16:46 25.83527 -80.46216 2052 ft 102 kts 352°
2026-04-24 16:46 25.84189 -80.46399 2136 ft 94 kts 349°
2026-04-24 16:46 25.84848 -80.46603 2111 ft 101 kts 351°
2026-04-24 16:46 25.85543 -80.46822 2076 ft 105 kts 351°
2026-04-24 16:47 25.86243 -80.47031 2106 ft 100 kts 351°
2026-04-24 16:47 25.86927 -80.47234 2056 ft 105 kts 351°
2026-04-24 16:47 25.87640 -80.47434 2063 ft 102 kts 352°
2026-04-24 16:47 25.88326 -80.47613 2045 ft 102 kts 354°
2026-04-24 16:48 25.89029 -80.47800 2018 ft 104 kts 348°
2026-04-24 16:48 25.89695 -80.48034 2065 ft 97 kts 349°
2026-04-24 16:48 25.90348 -80.48261 2042 ft 101 kts 345°
2026-04-24 16:48 25.90857 -80.48759 2084 ft 99 kts 294°
2026-04-24 16:49 25.90898 -80.49541 2036 ft 105 kts 268°
2026-04-24 16:49 25.90857 -80.50376 1945 ft 111 kts 266°
2026-04-24 16:49 25.90811 -80.51270 1788 ft 118 kts 267°
2026-04-24 16:49 25.90754 -80.52177 1710 ft 117 kts 266°
2026-04-24 16:50 25.90724 -80.52760 1718 ft 110 kts 268°
2026-04-24 16:50 25.90676 -80.53885 1699 ft 105 kts 269°
2026-04-24 16:50 25.90646 -80.54701 1681 ft 104 kts 268°
2026-04-24 16:50 25.90616 -80.55486 1683 ft 103 kts 267°
2026-04-24 16:51 25.90335 -80.56142 1749 ft 89 kts 214°
2026-04-24 16:51 25.89747 -80.56329 1700 ft 90 kts 165°
2026-04-24 16:51 25.89237 -80.55961 1638 ft 91 kts 120°
2026-04-24 16:51 25.89145 -80.55325 1665 ft 88 kts 80°
2026-04-24 16:52 25.89348 -80.54679 1680 ft 86 kts 71°
2026-04-24 16:52 25.89577 -80.54059 1667 ft 88 kts 71°
2026-04-24 16:52 25.89723 -80.53403 1654 ft 90 kts 84°
2026-04-24 16:52 25.89838 -80.52709 1622 ft 92 kts 80°
2026-04-24 16:53 25.89978 -80.52034 1663 ft 87 kts 79°
2026-04-24 16:53 25.90093 -80.51373 1660 ft 88 kts 84°
2026-04-24 16:53 25.90181 -80.50697 1670 ft 87 kts 85°
2026-04-24 16:53 25.90259 -80.50030 1665 ft 87 kts 86°
2026-04-24 16:54 25.90309 -80.49369 1673 ft 87 kts 90°
2026-04-24 16:54 25.90339 -80.48691 1651 ft 89 kts 89°
2026-04-24 16:54 25.90367 -80.48002 1613 ft 93 kts 89°
2026-04-24 16:54 25.90384 -80.47322 1656 ft 86 kts 92°
2026-04-24 16:55 25.90392 -80.46654 1653 ft 86 kts 91°
2026-04-24 16:55 25.90410 -80.46027 1678 ft 84 kts 90°
2026-04-24 16:55 25.90424 -80.45378 1676 ft 84 kts 88°
2026-04-24 16:55 25.90488 -80.44750 1662 ft 87 kts 86°
2026-04-24 16:56 25.90548 -80.44080 1644 ft 89 kts 89°
2026-04-24 16:56 25.90564 -80.43398 1612 ft 91 kts 90°
2026-04-24 16:56 25.90582 -80.42732 1668 ft 84 kts 90°
2026-04-24 16:56 25.90595 -80.42073 1637 ft 88 kts 91°
2026-04-24 16:57 25.90612 -80.41420 1656 ft 86 kts 88°
2026-04-24 16:57 25.90666 -80.40759 1654 ft 87 kts 86°
2026-04-24 16:57 25.90713 -80.40096 1661 ft 87 kts 89°
2026-04-24 16:57 25.90744 -80.39422 1629 ft 90 kts 88°
2026-04-24 16:58 25.90773 -80.38771 1642 ft 79 kts 90°
2026-04-24 16:58 25.90779 -80.38197 1621 ft 73 kts 91°
2026-04-24 16:58 25.90787 -80.37676 1609 ft 68 kts 89°
2026-04-24 16:58 25.90847 -80.37148 1462 ft 70 kts 83°
2026-04-24 16:59 25.90906 -80.36618 1349 ft 68 kts 90°
2026-04-24 16:59 25.90922 -80.36128 1275 ft 64 kts 92°
2026-04-24 16:59 25.90929 -80.35281 1127 ft 66 kts 90°
2026-04-24 17:00 25.90980 -80.34797 1040 ft 68 kts 84°
2026-04-24 17:00 25.91039 -80.33794 890 ft 65 kts 93°
2026-04-24 17:01 25.91127 -80.31823 553 ft 66 kts 88°
2026-04-24 17:02 25.91178 -80.30832 388 ft 66 kts 91°
2026-04-24 17:02 25.91204 -80.30314 282 ft 67 kts 91°
2026-04-24 17:02 25.91226 -80.29667 182 ft 65 kts 91°
2026-04-24 17:02 25.91252 -80.29194 81 ft 58 kts 92°